Find Starlink 4277

NORAD ID: 53009 Int'l Des: 2022-076 Owner: SPXS Country: US Constellation: starlink operational
LEOCIRCULAR

Current View

Loading 3D Globe...

About Starlink 4277

Description loading...

Upcoming Passes

Passes for default location (London). Set your location on the main map for personalized predictions.

Altitude History

Loading altitude history...

Two-Line Element Set

1 53009U 22076Z 26150.11408227 -.00000568 00000-0 -17571-4 0 9999
2 53009 53.1976 78.5801 0001588 61.2642 298.8509 15.08830003215278
Epoch: May 30, 2026 • Age: 8 hours

Current Status

Altitude 558.1 km
Velocity 7.58 km/s
Sub-Earth Point -50.56°S, 30.96°W
Launch Date Jul 7, 2022
Age 3.8 years
Type internet

Technical Details

Classification Payload
Mass 297.00 kg
Dry Mass 275.00 kg
Total Mass 297.00 kg
Length 0.20 m
Diameter 2.80 m
Span 9.00 m
Shape Box + pan
Manufacturer SPXS
Bus Type Starlink
Phase Status In Orbit
Owner/State SPXS/US

Most Searched